Location: D.A.R.C. Observatory
(36.7133°N, 120.8553°W)
Time: 10:19:33
(UTC-08:00)

Daily predictions for brighter satellites

Satellite Brightness Start Highest point End
(mag) Time Altitude Azimuth Time Altitude Azimuth Time Altitude Azimuth
Meteor 1-5 Rocket 4.2 17:10:26 10° N 17:15:50 63° E 17:21:22 10° SSE
Thor Agena Rocket 3.6 17:10:46 10° NNE 17:15:56 64° ESE 17:21:08 10° S
Cosmos 1269 Rocket 4.4 17:10:51 10° NNW 17:16:10 73° WSW 17:21:25 10° S
ATLAS 2AS CENTAUR R/B 3.3 17:10:09 10° NNW 17:17:49 45° NE 17:25:00 10° ESE
YAOGAN 1 2.7 17:19:25 10° SSE 17:23:36 52° ENE 17:27:50 10° N
AQUARIUS 4.2 17:19:50 10° SSE 17:24:14 60° ENE 17:28:41 10° N
Cosmos 2082 Rocket 3.9 17:22:28 10° NNE 17:24:39 12° NE 17:26:49 10° ENE
Cosmos 2251 Rocket 3.9 17:22:52 10° N 17:27:56 41° ENE 17:32:55 10° SE
Cosmos 1833 Rocket 4.4 17:26:50 10° NE 17:28:13 11° NE 17:29:26 10° ENE
SL-27 R/B 2.9 17:25:21 10° N 17:28:51 42° ENE 17:32:18 10° SE
CZ-2C R/B 2.4 17:31:47 10° SSE 17:36:42 83° ENE 17:41:48 10° N
Cosmos 1238 Rocket 2.0 17:33:57 10° S 17:36:53 59° E 17:39:49 10° NNE
Hubble Space Telescope 3.5 17:35:42 10° SW 17:37:47 14° SSW 17:39:52 10° SSE
Cosmos 158 Rocket 4.4 17:36:10 10° NNW 17:41:29 70° WSW 17:46:40 10° S
Okean 1 3.7 17:37:41 10° SSE 17:41:30 43° E 17:45:22 10° NNE
SMAP 3.1 17:37:48 10° SSE 17:42:28 86° W 17:47:08 10° NNW
FALCON 9 R/B 4.3 17:10:34 10° WSW 17:43:58 69° SSE 17:51:03 14° E
EP 2 4.1 17:41:56 10° SSW 17:44:34 85° ESE 17:46:29 17° NNE
OTV 4 1.3 17:41:53 10° W 17:44:47 46° SSW 17:47:41 10° ESE
SL-24 DEB 4.5 17:40:32 10° NNE 17:45:09 50° E 17:49:41 10° SSE
SL-8 Rocket 4.0 17:39:24 10° N 17:45:35 87° W 17:51:44 10° S
SKYMED 2 3.9 17:43:05 10° NNE 17:47:15 44° E 17:51:23 10° S
Cosmos 1455 Rocket 3.0 17:43:15 10° N 17:47:38 63° E 17:52:00 10° SSE
COSMOS 2441 4.4 17:45:19 10° SSE 17:50:04 58° ENE 17:54:52 10° N
Meteor 2-19 Rocket 4.4 17:44:51 10° N 17:50:56 88° W 17:56:59 10° S
Cosmos 1812 2.7 17:49:10 10° S 17:53:02 88° W 17:56:54 10° N
BREEZE-M DEB (TANK) 4.2 17:52:53 10° NNW 17:53:27 11° NNW 17:54:02 10° N
Cosmos 2366 rocket 4.0 17:49:58 10° N 17:56:21 83° E 18:02:39 10° S
Delta 2 Rocket 4.4 17:53:08 10° SW 17:56:36 32° SSE 17:58:57 19° ESE
ORS 1 (USA 231) 4.5 17:53:25 10° WNW 17:56:38 86° NNE 17:58:26 24° ESE
Meteor 1-18 Rocket 4.2 17:51:27 10° S 17:57:04 88° W 18:02:49 10° N
Cosmos 1346 Rocket 3.0 17:55:58 10° SSE 17:59:43 45° E 18:02:29 17° NNE
Cosmos 2218 Rocket 4.1 17:53:26 10° N 17:59:44 81° W 18:05:55 10° S
GEOS 3 Rocket 4.0 17:58:23 10° ESE 18:03:09 41° NE 18:07:54 10° NNW
BREEZE-M DEB (TANK) 4.2 17:58:56 10° WNW 18:04:12 48° SW 18:07:42 10° SSE
Cosmos 1844 Rocket 4.2 18:05:47 10° SW 18:10:48 34° WNW 18:15:53 10° N
CZ-4 R/B 3.8 18:08:57 10° SSW 18:12:27 26° W 18:15:58 10° NW
Cosmos 1809 Rocket 4.4 18:07:54 10° N 18:14:00 63° E 18:20:02 10° SSE
SL-8 R/B 4.0 18:09:47 10° WSW 18:14:29 58° NNW 18:16:57 27° NE
MSX 4.3 18:14:18 10° S 18:20:00 63° WSW 18:25:43 10° NNW
NOSS 2-1 (E) 4.1 18:20:03 10° S 18:23:10 32° SE 18:23:10 32° SE
Cosmos 2297 3.6 18:20:42 10° S 18:26:17 66° ESE 18:29:17 28° NE
Cosmos 1975 3.2 18:23:03 10° NNW 18:27:05 66° W 18:31:05 10° S
TIMED 4.4 18:24:47 10° S 18:29:06 67° ESE 18:30:15 46° NE
Cosmos 1821 Rocket 4.1 18:25:37 10° N 18:31:27 46° E 18:37:16 10° SSE
Tiangong 1 1.6 18:30:51 10° WSW 18:33:17 53° SW 18:33:17 53° SW
Cosmos 1371 Rocket 4.4 18:29:47 10° S 18:34:41 41° ESE 18:34:41 41° ESE
COSMO-SKYMED 1 3.5 18:31:04 10° N 18:35:16 48° WNW 18:39:26 10° SSW
ISS -0.5 18:36:41 10° NNW 18:37:19 10° NNW 18:37:22 10° NNW
Cosmos 2278 Rocket 3.3 18:36:22 10° SW 18:41:42 42° WNW 18:46:46 11° N
Meteor 1-19 Rocket 4.1 18:39:07 10° S 18:44:51 82° E 18:49:02 20° NNE
Nadezhda 3 Rocket 4.3 18:44:32 10° SSW 18:50:39 66° W 18:56:53 10° N
Cosmos 1025 Rocket 4.1 19:04:04 10° SSW 19:06:52 39° SSW 19:06:52 39° SSW
ATLAS 2AS CENTAUR R/B 4.1 19:01:28 10° NW 19:08:45 41° WSW 19:15:31 10° S
CZ-3B DEB 4.0 19:04:25 10° WNW 19:09:02 31° NNW 19:12:39 24° NNE
Cosmos 2082 Rocket 2.1 19:03:52 10° NNW 19:09:08 77° N 19:09:08 77° N
Cosmos 1833 Rocket 3.3 19:07:25 10° NNW 19:11:14 44° N 19:11:14 44° N
ATLAS 3B CENTAUR R/B 3.5 18:58:15 10° WSW 19:13:36 49° S 19:15:40 40° SSE
Meteor 1-23 Rocket 4.2 19:09:39 10° S 19:15:05 81° SSW 19:15:05 81° SSW
Cosmos 921 Rocket 4.2 19:11:35 10° SW 19:15:19 39° W 19:15:19 39° W
Meteor 2-4 Rocket 4.3 19:27:25 10° SSW 19:32:34 50° W 19:32:34 50° W
